15min,AgWx,beryljct,423,11SEP2020:00:00:00,42.5,12.85,37.0,37.0,39.0,40.3,37.0,62,70,52,0.448,27.2,29.5,23.5,1.513,0.9,302,57,1.8,-0.00019,-0.00027,56.4,59.7,14,0,.,.,4.31,0.00,0.00
15min,AgWx,beryljct,423,11SEP2020:00:15:00,41.6,12.87,38.8,38.2,37.4,38.2,36.9,50,59,45,0.363,20.2,24.1,17.7,0.482,1.3,323,4.0,2.0,-0.00013,-0.00016,56.2,59.7,14,0,.,.,4.32,0.01,0.00
15min,AgWx,beryljct,423,11SEP2020:00:30:00,40.8,12.86,37.8,35.6,37.8,40.5,35.4,56,72,44,0.496,23.1,27.3,19.4,3.31,1.8,224,64,4.5,-0.00009,-0.00010,55.9,59.7,14,0,.,.,4.32,0.00,0.00
15min,AgWx,beryljct,423,11SEP2020:00:45:00,40.1,12.86,37.6,36.7,36.2,37.0,35.4,62,69,56,0.455,24.4,26.6,22.4,1.578,2.6,179,15,4.6,-0.00005,-0.00004,55.7,59.6,14,0,.,.,4.32,0.01,0.00
15min,AgWx,beryljct,423,11SEP2020:01:00:00,39.6,12.85,34.6,36.9,39.1,42.7,36.3,54,64,45,0.450,23.7,25.2,22.6,1.074,3.5,170,14,5.0,0.00003,0.00006,55.4,59.6,14,0,.,.,4.32,0.00,0.00
15min,AgWx,beryljct,423,11SEP2020:01:15:00,39.2,12.82,35.5,35.1,35.4,38.0,33.3,65,74,55,0.434,24.8,25.9,23.4,2.411,2.5,157,14,3.4,-0.00006,-0.00007,55.2,59.5,14,0,.,.,4.32,0.00,0.00
15min,AgWx,beryljct,423,11SEP2020:01:30:00,38.4,12.83,35.3,35.2,34.3,35.9,32.8,66,75,56,0.405,24.2,26.4,21.8,2.455,2.0,168,12,3.2,-0.00010,-0.00011,55.0,59.5,14,0,.,.,4.32,0.00,0.00
15min,AgWx,beryljct,423,11SEP2020:01:45:00,37.8,12.8,34.3,34.2,34.6,35.8,33.7,54,63,47,0.352,19.7,23.2,17.1,2.039,4.4,186,7.1,6.5,0.00006,0.00010,54.8,59.4,14,0,.,.,4.32,0.00,0.00
15min,AgWx,beryljct,423,11SEP2020:02:00:00,37.2,12.81,34.0,33.5,33.0,34.2,32.1,65,75,53,0.412,22.5,25.2,19.0,0,0.9,115,43,2.2,-0.00017,-0.00023,54.6,59.4,14,0,.,.,4.33,0.00,0.00
15min,AgWx,beryljct,423,11SEP2020:02:15:00,36.5,12.8,34.5,33.8,32.8,33.9,32.0,71,80,62,0.414,24.3,26.6,21.8,2.565,0.2,113,16,2.6,-0.00023,-0.00036,54.3,59.3,14,0,.,.,4.32,0.00,0.00
15min,AgWx,beryljct,423,11SEP2020:02:30:00,35.9,12.79,33.1,33.2,32.5,34.2,31.6,74,78,63,0.465,25.1,25.8,22.6,0,1.1,47,8.8,2.8,-0.00016,-0.00021,54.1,59.3,14,0,.,.,4.32,0.00,0.00
15min,AgWx,beryljct,423,11SEP2020:02:45:00,35.4,12.77,34.0,33.7,33.6,34.0,33.0,70,75,66,0.451,24.9,25.9,23.5,1.578,0.4,356,24,1.6,-0.00021,-0.00032,53.9,59.2,14,0,.,.,4.32,0.00,0.00
15min,AgWx,beryljct,423,11SEP2020:03:00:00,35.1,12.78,31.8,31.9,32.6,33.7,31.9,77,79,69,0.470,26.1,26.7,24.7,2.477,2.5,165,27,4.6,-0.00009,-0.00010,53.7,59.1,14,0,.,.,4.32,0.00,0.00
15min,AgWx,beryljct,423,11SEP2020:03:15:00,34.8,12.75,32.8,32.4,32.3,32.9,31.4,75,80,67,0.482,25.1,26.2,23.2,0.57,1.2,204,1.5,2.4,-0.00015,-0.00020,53.5,59.1,14,0,.,.,4.32,0.00,0.00
15min,AgWx,beryljct,423,11SEP2020:03:30:00,34.4,12.76,32.4,32.1,32.9,33.4,32.1,76,79,74,0.486,26.1,26.6,25.6,0.723,0.7,168,59,2.1,-0.00019,-0.00028,53.3,59.0,14,0,.,.,4.32,0.00,0.00
15min,AgWx,beryljct,423,11SEP2020:03:45:00,34.1,12.75,32.7,32.2,32.0,32.6,31.0,71,79,59,0.394,23.5,26.4,19.5,2.85,0.7,343,45,2.9,-0.00018,-0.00026,53.1,58.9,14,0,.,.,4.32,0.00,0.00
15min,AgWx,beryljct,423,11SEP2020:04:00:00,33.8,12.73,30.9,30.7,31.4,32.2,30.7,69,88,56,0.507,22.2,27.5,17.5,0.965,2.3,44,80,3.6,-0.00008,-0.00008,52.9,58.9,14,0,.,.,4.33,0.00,0.00
15min,AgWx,beryljct,423,11SEP2020:04:15:00,33.4,12.73,31.1,30.8,31.1,31.8,30.6,82,89,70,0.492,26.0,27.8,23.0,0.614,0.4,114,14,1.4,-0.00020,-0.00030,52.7,58.8,14,0,.,.,4.33,0.00,0.00
15min,AgWx,beryljct,423,11SEP2020:04:30:00,33.0,12.71,31.1,30.8,30.6,31.0,30.1,82,86,77,0.491,25.8,27.0,24.3,0.197,0.1,127,0.0,0.6,-0.00023,-0.00036,52.5,58.7,14,0,.,.,4.33,0.00,0.00
15min,AgWx,beryljct,423,11SEP2020:04:45:00,32.7,12.69,34.4,33.1,31.5,33.1,30.8,76,84,68,0.436,24.9,26.7,23.5,0.46,0.1,127,0.0,0.7,-0.00024,-0.00037,52.3,58.7,14,0,.,.,4.33,0.00,0.00
15min,AgWx,beryljct,423,11SEP2020:05:00:00,32.6,12.67,31.6,32.0,33.4,34.2,31.8,67,72,62,0.401,23.6,25.5,20.8,2.565,1.0,89,63,2.6,-0.00017,-0.00023,52.1,58.6,14,0,.,.,4.33,0.00,0.00
15min,AgWx,beryljct,423,11SEP2020:05:15:00,32.5,12.68,30.0,29.8,31.1,32.5,29.8,76,79,68,0.424,24.4,25.5,22.2,1.6,1.8,158,24,3.5,-0.00011,-0.00014,51.9,58.5,14,0,.,.,4.33,0.00,0.00
15min,AgWx,beryljct,423,11SEP2020:05:30:00,32.2,12.67,31.6,30.4,29.9,30.4,29.6,76,81,68,0.389,23.3,24.4,21.1,1.425,1.9,190,0.1,2.5,0.00008,0.00013,51.8,58.4,14,0,.,.,4.33,0.00,0.00
15min,AgWx,beryljct,423,11SEP2020:05:45:00,31.9,12.63,31.3,30.8,31.5,31.9,30.5,65,75,57,0.438,21.0,24.2,18.5,0.723,0.7,190,0.1,1.4,0.00005,0.00008,51.6,58.4,14,0,.,.,4.33,0.00,0.00
15min,AgWx,beryljct,423,11SEP2020:06:00:00,31.8,12.64,30.8,30.9,31.2,31.9,30.7,64,75,60,0.358,20.4,23.9,19.2,0.241,1.3,273,36,2.4,0.00009,0.00015,51.4,58.3,14,0,.,.,4.33,0.00,0.00
15min,AgWx,beryljct,423,11SEP2020:06:15:00,31.5,12.63,28.3,28.5,29.7,30.8,28.5,64,71,58,0.376,19.1,20.8,17.7,0.702,0.9,2.9,16,2.4,0.00007,0.00011,51.3,58.2,14,3,.,.,4.33,0.00,0.00
15min,AgWx,beryljct,423,11SEP2020:06:30:00,31.1,12.66,29.3,28.8,28.4,28.8,28.0,75,79,71,0.386,21.5,22.6,20.1,0.68,0.1,13,0.3,0.7,0.00008,0.00009,51.1,58.1,14,18,.,.,4.33,0.00,0.00
15min,AgWx,beryljct,423,11SEP2020:06:45:00,31.1,12.68,29.7,29.6,29.3,29.7,28.8,76,82,73,0.455,22.5,24.8,21.1,0.526,0.5,17,3.3,0.9,0.00026,0.00029,50.9,58.0,14,58,.,.,4.33,0.00,0.00
15min,AgWx,beryljct,423,11SEP2020:07:00:00,31.8,12.67,31.3,31.3,30.6,31.8,29.5,80,86,74,0.480,25.0,26.1,23.7,1.271,1.1,126,23,2.3,0.00039,0.00044,50.8,57.9,14,100,.,.,4.33,0.00,0.00
15min,AgWx,beryljct,423,11SEP2020:07:15:00,33.4,12.75,34.5,34.4,32.9,34.9,31.1,75,83,67,0.468,25.9,27.2,24.8,0.767,0.8,133,1.8,1.8,0.00056,0.00062,50.7,57.9,13,144,.,.,4.33,0.00,0.00
15min,AgWx,beryljct,423,11SEP2020:07:30:00,35.7,12.87,37.4,36.9,35.4,37.0,34.2,74,80,62,0.498,28.0,29.3,25.2,1.337,0.6,136,0.0,1.3,0.00076,0.00084,50.5,57.8,13,191,.,.,4.33,0.00,0.00
15min,AgWx,beryljct,423,11SEP2020:07:45:00,38.7,13.17,39.8,39.4,38.0,39.4,36.9,65,70,61,0.546,27.4,29.2,26.0,1.644,1.1,134,2.5,1.8,0.00102,0.00114,50.4,57.7,13,242,.,.,4.32,0.00,0.00
15min,AgWx,beryljct,423,11SEP2020:08:00:00,41.8,13.6,42.1,42.0,40.8,42.0,39.4,63,66,58,0.564,29.0,31.1,26.8,1.184,1.4,95,7.9,2.3,0.00131,0.00147,50.3,57.6,14,294,.,.,4.32,0.00,0.00
15min,AgWx,beryljct,423,11SEP2020:08:15:00,45.1,14.55,44.8,44.9,43.3,44.9,42.0,56,63,50,0.568,28.8,30.8,26.7,1.184,0.6,106,13,1.5,0.00159,0.00174,50.2,57.5,13,345,.,.,4.32,0.00,0.00
15min,AgWx,beryljct,423,11SEP2020:08:30:00,48.4,14.48,47.5,46.3,45.4,46.5,44.5,54,57,50,0.535,29.6,31.4,27.4,1.14,1.2,115,15,2.0,0.00192,0.00213,50.2,57.5,13,398,.,.,4.32,0.00,0.00
15min,AgWx,beryljct,423,11SEP2020:08:45:00,51.3,14.39,49.1,48.4,47.4,48.4,46.4,51,56,45,0.576,30.1,32.7,28.0,1.929,1.9,99,12,2.9,0.00225,0.00255,50.2,57.4,13,449,.,.,4.31,0.00,0.00
15min,AgWx,beryljct,423,11SEP2020:09:00:00,54.1,14.4,51.8,51.1,49.9,51.1,48.4,51,56,46,0.635,32.6,35.2,30.5,1.14,1.3,100,13,2.3,0.00257,0.00286,50.2,57.3,13,498,.,.,4.31,0.00,0.00
15min,AgWx,beryljct,423,11SEP2020:09:15:00,57.0,14.29,53.0,53.6,52.4,53.6,51.1,45,51,38,0.648,31.4,34.3,28.3,1.052,1.3,115,14,2.4,0.00293,0.00325,50.3,57.2,13,545,.,.,4.31,0.00,0.00
15min,AgWx,beryljct,423,11SEP2020:09:30:00,59.7,14.23,54.9,55.1,54.7,56.3,53.3,38,47,32,0.539,29.7,33.9,25.3,1.951,1.2,123,18,2.5,0.00327,0.00363,50.4,57.1,13,590,.,.,4.30,0.00,0.00
15min,AgWx,beryljct,423,11SEP2020:09:45:00,62.3,14.29,56.7,56.6,56.6,57.9,55.1,37,43,29,0.567,30.3,34.9,25.2,0.219,1.0,73,20,2.4,0.00358,0.00395,50.6,57.1,13,633,.,.,4.30,0.00,0.00
15min,AgWx,beryljct,423,11SEP2020:10:00:00,64.7,14.2,60.5,59.8,58.3,59.8,56.6,38,42,34,0.667,32.6,36.2,29.8,0.351,1.1,82,12,2.4,0.00389,0.00429,50.9,57.0,13,673,.,.,4.29,0.00,0.00
15min,AgWx,beryljct,423,11SEP2020:10:15:00,67.0,14.24,62.5,61.0,60.5,61.2,59.9,35,42,29,0.584,32.9,37.5,28.0,0.855,1.4,88,24,3.1,0.00423,0.00468,51.2,57.0,13,711,.,.,4.29,0.00,0.00
15min,AgWx,beryljct,423,11SEP2020:10:30:00,68.7,13.74,62.4,62.7,62.1,62.9,61.1,35,43,28,0.550,34.2,39.6,28.9,1.951,1.9,110,25,3.4,0.00453,0.00508,51.6,56.9,13,745,.,.,4.29,0.00,0.00
15min,AgWx,beryljct,423,11SEP2020:10:45:00,70.0,13.76,65.5,64.9,63.4,64.9,62.6,32,39,26,0.566,33.1,38.9,28.6,0,1.8,86,14,3.7,0.00478,0.00535,52.0,56.9,13,775,.,.,4.28,0.00,0.00
15min,AgWx,beryljct,423,11SEP2020:11:00:00,71.5,13.67,65.7,65.6,65.3,65.9,64.4,31,39,23,0.767,33.6,40.4,27.1,2.28,1.6,108,27,3.4,0.00502,0.00559,52.6,56.9,13,802,.,.,4.28,0.00,0.00
15min,AgWx,beryljct,423,11SEP2020:11:15:00,72.8,13.66,67.0,67.1,66.4,67.2,65.6,33,43,26,0.587,36.4,43.8,30.7,1.6,2.5,97,25,4.3,0.00528,0.00598,53.2,56.8,13,826,.,.,4.27,0.00,0.00
15min,AgWx,beryljct,423,11SEP2020:11:30:00,73.9,13.7,69.0,68.7,68.0,68.7,67.2,31,39,23,0.761,35.8,42.7,28.5,2.718,2.6,88,24,4.4,0.00549,0.00624,53.8,56.8,13,846,.,.,4.27,0.00,0.00
15min,AgWx,beryljct,423,11SEP2020:11:45:00,75.0,13.62,70.0,70.1,69.3,70.2,68.7,32,38,24,0.703,38.0,42.2,30.9,3.573,3.9,98,14,5.7,0.00574,0.00667,54.5,56.8,13,861,.,.,4.27,0.00,0.00
15min,AgWx,beryljct,423,11SEP2020:12:00:00,75.9,13.57,70.8,71.2,70.8,71.3,70.2,27,36,20,0.646,34.9,42.5,27.4,2.85,3.9,95,17,6.9,0.00591,0.00690,55.3,56.8,13,871,.,.,4.27,0.00,0.00
15min,AgWx,beryljct,423,11SEP2020:12:15:00,76.6,13.56,71.4,71.9,71.5,71.9,71.1,26,35,19,0.928,34.7,42.7,27.5,4.976,4.4,85,9.9,6.6,0.00605,0.00713,56.1,56.8,13,880,.,.,4.27,0.00,0.00
15min,AgWx,beryljct,423,11SEP2020:12:30:00,77.0,13.56,72.2,72.3,72.2,72.7,71.8,24,34,17,0.588,33.1,41.8,24.7,3.88,4.0,92,20,8.3,0.00609,0.00714,56.8,56.9,13,883,.,.,4.27,0.00,0.00
15min,AgWx,beryljct,423,11SEP2020:12:45:00,77.4,13.63,73.2,73.2,72.8,73.2,72.3,23,32,16,0.694,33.0,41.8,23.9,3.551,4.1,107,25,6.1,0.00617,0.00726,57.6,56.9,13,885,.,.,4.27,0.00,0.00
15min,AgWx,beryljct,423,11SEP2020:13:00:00,78.3,13.51,74.1,74.3,73.9,74.3,73.2,23,37,14,0.625,32.8,45.9,22.4,3.354,2.7,122,22,5.1,0.00604,0.00692,58.4,56.9,13,881,.,.,4.27,0.00,0.00
15min,AgWx,beryljct,423,11SEP2020:13:15:00,79.6,13.47,74.1,74.1,74.4,74.9,74.1,22,31,15,0.880,32.5,42.0,23.6,3.573,3.5,120,21,6.7,0.00610,0.00711,59.2,57.0,13,873,.,.,4.27,0.00,0.00
15min,AgWx,beryljct,423,11SEP2020:13:30:00,80.4,13.55,74.3,74.4,74.1,74.6,73.9,27,41,16,0.587,37.2,49.1,24.9,3.968,4.8,86,15,8.1,0.00612,0.00729,59.9,57.1,13,859,.,.,4.27,0.00,0.00
15min,AgWx,beryljct,423,11SEP2020:13:45:00,81.4,13.47,74.8,74.9,75.4,77.3,74.4,22,32,13,0.624,33.0,43.3,21.3,2.455,2.8,98,47,7.6,0.00586,0.00675,60.6,57.2,13,843,.,.,4.27,0.00,0.00
15min,AgWx,beryljct,423,11SEP2020:14:00:00,82.1,13.4,75.1,75.1,74.9,75.1,74.7,25,34,16,0.916,36.6,44.6,26.5,4.735,4.8,86,16,8.3,0.00594,0.00711,61.3,57.2,13,825,.,.,4.27,0.00,0.00
15min,AgWx,beryljct,423,11SEP2020:14:15:00,82.5,13.36,74.7,74.9,75.2,75.7,74.8,23,35,14,0.755,34.5,45.3,23.2,4.867,4.6,98,27,9.1,0.00578,0.00694,62.0,57.3,13,801,.,.,4.27,0.00,0.00
15min,AgWx,beryljct,423,11SEP2020:14:30:00,82.7,13.38,75.6,76.0,75.5,76.5,74.8,23,32,13,0.950,34.6,43.2,22.0,2.74,4.4,84,30,7.3,0.00559,0.00672,62.5,57.4,13,773,.,.,4.27,0.00,0.00
15min,AgWx,beryljct,423,11SEP2020:14:45:00,83.1,13.36,75.0,75.0,75.7,76.2,75.0,26,38,15,0.911,38.3,48.4,25.6,7.936,4.7,129,13,7.9,0.00541,0.00654,63.1,57.6,13,744,.,.,4.27,0.00,0.00
15min,AgWx,beryljct,423,11SEP2020:15:00:00,83.2,13.39,75.4,76.0,75.8,76.3,75.0,23,31,15,0.809,34.9,42.9,25.2,5.59,4.4,121,14,9.2,0.00492,0.00601,63.6,57.7,13,676,.,.,4.28,0.00,0.00
15min,AgWx,beryljct,423,11SEP2020:15:15:00,83.3,13.34,76.0,76.1,75.8,76.4,75.4,25,41,14,0.573,37.2,50.2,23.7,3.814,4.4,102,13,7.1,0.00489,0.00595,64.0,57.9,13,673,.,.,4.28,0.00,0.00
15min,AgWx,beryljct,423,11SEP2020:15:30:00,83.3,13.35,75.9,76.5,76.1,76.7,75.4,23,38,14,0.771,35.5,48.0,24.4,3.551,4.8,94,18,7.5,0.00468,0.00581,64.4,58.0,13,631,.,.,4.27,0.00,0.00
15min,AgWx,beryljct,423,11SEP2020:15:45:00,83.5,13.33,75.8,75.8,75.7,76.3,75.0,33,43,17,1.046,44.0,51.4,28.7,3.661,3.9,126,12,6.3,0.00408,0.00494,64.7,58.2,13,572,.,.,4.28,0.00,0.00
15min,AgWx,beryljct,423,11SEP2020:16:00:00,83.6,13.36,77.2,77.1,76.3,77.1,75.7,27,41,15,0.494,39.6,50.4,26.3,1.929,2.9,110,17,4.6,0.00374,0.00447,65.0,58.3,13,541,.,.,4.27,0.00,0.00
15min,AgWx,beryljct,423,11SEP2020:16:15:00,83.8,13.33,77.6,77.1,76.6,77.2,75.7,25,38,16,0.514,37.7,48.5,26.7,2.806,3.1,109,9.8,4.4,0.00342,0.00419,65.2,58.5,13,489,.,.,4.27,0.00,0.00
15min,AgWx,beryljct,423,11SEP2020:16:30:00,83.9,13.36,77.5,77.6,76.7,77.7,76.0,26,39,13,0.525,38.4,49.8,23.7,1.315,2.1,97,22,4.1,0.00286,0.00343,65.3,58.6,13,438,.,.,4.28,0.00,0.00
15min,AgWx,beryljct,423,11SEP2020:16:45:00,84.2,13.29,76.9,77.2,78.1,80.3,77.1,23,32,13,0.770,36.6,45.0,23.8,2.499,0.8,124,13,2.7,0.00220,0.00250,65.4,58.8,13,387,.,.,4.27,0.00,0.00
15min,AgWx,beryljct,423,11SEP2020:17:00:00,83.9,13.33,75.0,74.4,75.8,77.4,74.4,34,47,19,1.232,45.3,53.1,31.9,3.244,3.1,91,6.9,4.1,0.00230,0.00293,65.4,58.9,13,340,.,.,4.28,0.00,0.00
15min,AgWx,beryljct,423,11SEP2020:17:15:00,82.9,13.34,75.1,75.0,75.7,77.7,74.4,29,42,14,1.122,40.2,49.9,24.0,4.056,3.4,92,7.2,4.8,0.00202,0.00272,65.4,59.1,13,291,.,.,4.28,0.00,0.00
15min,AgWx,beryljct,423,11SEP2020:17:30:00,81.5,13.38,74.9,74.7,74.7,75.5,73.9,34,42,26,0.988,44.5,49.8,37.8,3.42,3.6,92,4.6,4.7,0.00167,0.00232,65.4,59.2,13,241,.,.,4.28,0.00,0.00
15min,AgWx,beryljct,423,11SEP2020:17:45:00,80.1,13.41,73.4,73.9,75.1,76.8,73.0,29,49,17,0.983,40.3,53.5,28.7,3.595,3.2,111,14,3.7,0.00127,0.00188,65.3,59.4,13,192,.,.,4.28,0.00,0.00
15min,AgWx,beryljct,423,11SEP2020:18:00:00,78.4,13.24,68.7,71.5,72.2,73.7,70.9,37,50,28,1.017,44.0,51.4,37.8,2.718,3.8,144,6.3,4.3,0.00070,0.00101,65.2,59.5,13,144,.,.,4.28,0.01,0.00
15min,AgWx,beryljct,423,11SEP2020:18:15:00,76.3,13.13,70.7,75.1,73.9,75.8,70.5,23,42,16,0.912,33.5,46.6,26.9,1.184,2.8,161,11,4.7,0.00051,0.00078,65.0,59.7,13,100,.,.,4.29,0.00,0.00
15min,AgWx,beryljct,423,11SEP2020:18:30:00,74.2,13.09,67.4,68.7,70.0,74.5,67.4,29,34,22,0.657,36.1,41.5,32.6,4.516,3.9,204,16,6.0,0.00049,0.00073,64.8,59.8,13,59,.,.,4.29,0.00,0.00
15min,AgWx,beryljct,423,11SEP2020:18:45:00,71.4,13.04,64.3,65.7,67.3,68.6,65.7,29,34,25,0.700,34.2,37.6,30.1,4.121,4.5,204,6.9,5.6,0.00042,0.00063,64.6,59.9,13,16,.,.,4.29,0.00,0.00
15min,AgWx,beryljct,423,11SEP2020:19:00:00,68.8,13.01,65.2,65.0,66.0,66.5,65.0,29,33,27,0.652,32.5,35.6,31.2,4.976,5.4,220,7.0,7.5,0.00048,0.00070,64.4,60.0,13,3,.,.,4.30,0.00,0.00
15min,AgWx,beryljct,423,11SEP2020:19:15:00,66.6,12.99,60.4,63.0,64.0,65.0,62.6,31,34,27,0.614,32.5,35.3,28.8,3.047,3.4,186,14,5.3,0.00021,0.00035,64.1,60.2,13,0,.,.,4.30,0.00,0.00
15min,AgWx,beryljct,423,11SEP2020:19:30:00,64.9,13,66.2,64.9,63.3,64.9,62.6,31,34,27,0.575,32.1,34.0,28.3,5.612,4.5,199,13,7.1,0.00032,0.00049,63.8,60.3,13,0,.,.,4.29,0.00,0.00
15min,AgWx,beryljct,423,11SEP2020:19:45:00,64.4,13,59.5,63.3,65.9,67.2,63.3,27,30,24,0.601,30.8,32.5,28.9,3.858,6.0,210,20,9.1,0.00055,0.00078,63.5,60.4,13,0,.,.,4.29,0.00,0.00
15min,AgWx,beryljct,423,11SEP2020:20:00:00,63.1,12.97,62.7,60.3,58.3,62.7,56.2,37,45,30,0.527,31.9,35.4,28.4,9.65,5.8,163,21,10.5,0.00037,0.00052,63.2,60.5,13,0,.,.,4.30,0.00,0.00
15min,AgWx,beryljct,423,11SEP2020:20:15:00,62.1,12.96,59.4,60.2,61.9,62.7,60.2,28,31,25,0.544,28.1,29.8,25.6,5.064,6.7,168,8.7,9.0,0.00056,0.00077,62.9,60.6,13,0,.,.,4.30,0.00,0.00
15min,AgWx,beryljct,423,11SEP2020:20:30:00,61.0,12.95,60.3,60.0,58.5,60.2,56.8,32,38,27,0.480,28.3,32.4,25.6,6.248,6.0,180,6.6,7.2,0.00043,0.00060,62.6,60.7,13,0,.,.,4.30,0.00,0.00
15min,AgWx,beryljct,423,11SEP2020:20:45:00,60.3,12.95,60.1,59.8,60.2,60.6,59.6,27,28,26,0.466,25.9,26.6,25.2,5.853,6.6,171,5.8,8.8,0.00054,0.00074,62.3,60.8,13,0,.,.,4.30,0.00,0.00
15min,AgWx,beryljct,423,11SEP2020:21:00:00,59.7,12.94,56.5,57.9,59.0,59.9,57.5,27,31,26,0.479,25.5,27.0,24.4,3.091,4.7,178,6.4,6.4,0.00035,0.00051,62.0,60.8,13,0,.,.,4.30,0.00,0.00
15min,AgWx,beryljct,423,11SEP2020:21:15:00,58.6,12.94,57.8,57.9,56.9,59.4,54.2,33,43,26,0.451,27.7,32.2,23.2,2.784,3.1,223,28,4.1,0.00013,0.00023,61.7,60.9,13,0,.,.,4.30,0.00,0.00
15min,AgWx,beryljct,423,11SEP2020:21:30:00,57.4,12.93,57.1,54.9,54.7,58.1,50.9,37,54,25,0.464,28.3,34.8,22.3,1.666,1.6,164,63,4.1,-0.00010,-0.00010,61.4,60.9,13,0,.,.,4.30,0.00,0.00
15min,AgWx,beryljct,423,11SEP2020:21:45:00,56.2,12.92,52.5,52.7,53.9,56.7,51.5,37,48,27,0.558,28.0,32.7,23.1,0,1.4,179,75,3.4,-0.00013,-0.00015,61.1,60.9,13,0,.,.,4.30,0.00,0.00
15min,AgWx,beryljct,423,11SEP2020:22:00:00,54.9,12.91,50.6,51.6,51.9,53.9,50.1,46,58,35,0.640,31.4,36.1,26.5,2.192,1.6,160,24,3.3,-0.00012,-0.00014,60.8,61.0,13,0,.,.,4.30,0.00,0.00
15min,AgWx,beryljct,423,11SEP2020:22:15:00,53.5,12.91,52.6,52.0,50.4,53.1,48.6,52,62,40,0.548,33.1,36.0,29.3,0.351,0.8,168,49,2.6,-0.00023,-0.00032,60.5,61.0,13,0,.,.,4.30,0.00,0.00
15min,AgWx,beryljct,423,11SEP2020:22:30:00,52.3,12.91,48.4,47.7,49.3,52.3,47.3,58,70,41,0.639,34.8,38.4,29.1,1.6,0.5,182,56,2.1,-0.00028,-0.00041,60.3,61.0,13,0,.,.,4.30,0.00,0.00
15min,AgWx,beryljct,423,11SEP2020:22:45:00,51.3,12.9,45.8,47.6,48.0,49.8,46.6,51,57,46,0.602,30.9,33.3,28.1,1.425,0.5,292,24,1.6,-0.00027,-0.00040,60.0,61.0,13,0,.,.,4.31,0.00,0.00
15min,AgWx,beryljct,423,11SEP2020:23:00:00,50.3,12.9,46.6,46.6,47.3,48.2,46.5,64,72,54,0.725,35.5,38.4,31.8,1.798,1.3,202,1.8,2.3,-0.00017,-0.00022,59.7,61.0,13,0,.,.,4.31,0.00,0.00
15min,AgWx,beryljct,423,11SEP2020:23:15:00,49.5,12.88,43.9,43.9,46.1,47.6,43.9,63,74,51,0.511,34.3,39.4,27.4,1.6,1.3,187,13,2.4,-0.00017,-0.00023,59.4,61.0,13,0,.,.,4.31,0.00,0.00
15min,AgWx,beryljct,423,11SEP2020:23:30:00,48.6,12.87,45.5,45.5,45.6,48.3,43.9,58,78,35,0.810,31.0,39.1,20.1,1.535,1.4,204,1.6,2.1,-0.00014,-0.00018,59.2,61.0,13,0,.,.,4.31,0.00,0.00
15min,AgWx,bigpiney,439,11SEP2020:00:00:00,37.5,12.64,35.1,34.5,34.1,34.7,32.6,76,79,74,0.503,27.2,27.9,26.2,1.951,2.8,260,15,4.3,-0.00009,-0.00010,47.7,48.6,45,0,0,0.0,8.27,0.00,0.00
15min,AgWx,bigpiney,439,11SEP2020:00:15:00,37.0,12.63,35.3,35.2,35.5,36.0,34.5,72,75,71,0.512,27.5,27.7,27.3,4.319,2.6,331,14,4.3,-0.00009,-0.00010,47.6,48.5,45,0,0,0.0,8.27,0.00,0.00
15min,AgWx,bigpiney,439,11SEP2020:00:30:00,37.0,12.61,35.5,35.5,35.3,35.5,35.1,74,75,74,0.524,27.9,28.2,27.6,1.71,2.7,325,7.2,4.1,-0.00009,-0.00010,47.6,48.5,45,0,0,0.0,8.27,0.00,0.00
15min,AgWx,bigpiney,439,11SEP2020:00:45:00,37.1,12.61,35.7,35.7,35.8,36.1,35.5,74,74,73,0.525,28.2,28.4,28.1,3.003,1.6,327,20,3.0,-0.00015,-0.00019,47.6,48.5,45,0,0,0.0,8.27,0.00,0.00
15min,AgWx,bigpiney,439,11SEP2020:01:00:00,37.3,12.61,36.3,36.0,35.7,36.1,35.3,75,76,74,0.529,28.5,28.7,28.2,3.946,3.2,324,14,4.1,-0.00007,-0.00008,47.5,48.5,45,0,0,0.0,8.27,0.00,0.00
15min,AgWx,bigpiney,439,11SEP2020:01:15:00,37.5,12.59,36.3,36.1,36.0,36.1,35.8,74,74,73,0.527,28.4,28.6,28.3,2.981,3.3,318,11,4.1,-0.00006,-0.00006,47.5,48.5,45,0,0,0.0,8.27,0.00,0.00
15min,AgWx,bigpiney,439,11SEP2020:01:30:00,37.8,12.59,36.2,36.2,36.3,36.5,36.1,73,73,73,0.530,28.5,28.7,28.4,2.17,3.4,304,9.0,4.1,-0.00006,-0.00006,47.5,48.4,45,0,0,0.0,8.27,0.00,0.00
15min,AgWx,bigpiney,439,11SEP2020:01:45:00,37.8,12.59,36.5,36.6,36.5,36.8,36.2,72,73,70,0.519,28.2,28.6,27.9,3.398,2.3,330,7.5,3.4,-0.00011,-0.00013,47.5,48.4,45,0,0,0.0,8.27,0.00,0.00
15min,AgWx,bigpiney,439,11SEP2020:02:00:00,37.6,12.58,35.5,35.8,36.3,36.6,35.8,71,73,71,0.518,27.9,28.0,27.8,2.587,2.7,344,11,3.4,-0.00008,-0.00009,47.4,48.5,45,0,0,0.0,8.27,0.00,0.00
15min,AgWx,bigpiney,439,11SEP2020:02:15:00,37.1,12.57,32.0,32.5,34.4,35.8,32.3,75,79,73,0.488,27.2,28.0,25.4,1.798,2.9,322,9.2,4.9,-0.00008,-0.00009,47.4,48.4,45,0,0,0.0,8.27,0.00,0.00
15min,AgWx,bigpiney,439,11SEP2020:02:30:00,36.2,12.57,32.9,32.4,32.1,32.4,31.3,79,80,77,0.491,26.3,26.7,25.3,2.17,1.3,282,15,2.3,-0.00016,-0.00021,47.3,48.5,45,0,0,0.0,8.27,0.00,0.00
15min,AgWx,bigpiney,439,11SEP2020:02:45:00,35.1,12.55,31.0,31.1,31.3,32.6,30.5,80,82,78,0.475,25.9,26.9,25.2,3.529,2.6,280,13,3.6,-0.00010,-0.00012,47.3,48.4,45,0,0,0.0,8.27,0.00,0.00
15min,AgWx,bigpiney,439,11SEP2020:03:00:00,33.9,12.54,30.7,30.4,30.8,31.3,30.2,80,81,79,0.464,25.5,26.0,24.9,2.653,3.0,284,9.2,3.6,-0.00009,-0.00010,47.3,48.4,45,0,0,0.0,8.27,0.00,0.00
15min,AgWx,bigpiney,439,11SEP2020:03:15:00,32.7,12.53,25.7,25.7,27.8,30.4,25.7,83,87,79,0.405,23.2,25.2,20.9,4.735,3.9,232,18,5.6,-0.00006,-0.00007,47.2,48.4,45,0,0,0.0,8.27,0.00,0.00
15min,AgWx,bigpiney,439,11SEP2020:03:30:00,31.5,12.52,25.3,24.1,24.9,25.7,23.9,88,89,85,0.389,21.7,22.5,20.4,5.042,4.6,224,4.3,5.3,-0.00006,-0.00007,47.2,48.4,45,0,0,0.0,8.27,0.00,0.00
15min,AgWx,bigpiney,439,11SEP2020:03:45:00,30.4,12.51,26.1,25.4,25.0,25.4,24.2,88,89,88,0.410,22.1,22.4,21.3,3.288,4.0,229,7.3,5.4,-0.00007,-0.00008,47.2,48.4,45,0,0,0.0,8.27,0.00,0.00
15min,AgWx,bigpiney,439,11SEP2020:04:00:00,29.6,12.5,24.2,24.2,25.2,26.0,24.2,87,89,85,0.382,21.9,23.0,20.7,3.201,3.4,208,7.4,4.3,-0.00008,-0.00009,47.1,48.4,45,0,0,0.0,8.27,0.00,0.00
15min,AgWx,bigpiney,439,11SEP2020:04:15:00,28.9,12.48,22.6,21.7,21.8,24.1,20.9,88,90,84,0.357,18.7,20.7,17.8,3.573,2.3,204,14,3.6,-0.00010,-0.00013,47.1,48.5,45,0,0,0.0,8.27,0.00,0.00
15min,AgWx,bigpiney,439,11SEP2020:04:30:00,28.0,12.47,28.9,27.9,25.1,27.9,21.8,90,93,86,0.445,22.5,24.4,19.2,1.907,2.7,246,11,4.0,-0.00010,-0.00012,47.0,48.4,45,0,0,0.0,8.27,0.00,0.00
15min,AgWx,bigpiney,439,11SEP2020:04:45:00,27.5,12.45,26.3,26.3,27.3,28.1,26.0,85,87,84,0.420,23.4,24.4,22.0,3.968,2.8,251,21,4.0,-0.00010,-0.00011,47.0,48.4,45,0,0,0.0,8.27,0.00,0.00
15min,AgWx,bigpiney,439,11SEP2020:05:00:00,27.0,12.44,23.5,22.6,22.9,26.2,21.7,87,91,83,0.376,19.5,22.8,18.5,4.56,4.3,224,8.4,5.0,-0.00006,-0.00006,47.0,48.4,45,0,0,0.0,8.27,0.00,0.00
15min,AgWx,bigpiney,439,11SEP2020:05:15:00,26.5,12.43,22.7,23.1,23.2,24.5,22.3,89,91,86,0.365,20.4,22.1,19.4,2.565,3.6,235,14,5.2,-0.00008,-0.00009,46.9,48.3,45,0,0,0.0,8.27,0.00,0.00
15min,AgWx,bigpiney,439,11SEP2020:05:30:00,26.2,12.4,27.6,24.8,22.9,24.8,22.1,89,92,86,0.417,20.1,22.8,19.0,1.82,2.4,233,6.6,3.9,-0.00010,-0.00013,46.9,48.4,45,0,0,0.0,8.27,0.00,0.00
15min,AgWx,bigpiney,439,11SEP2020:05:45:00,25.9,12.37,24.3,24.7,24.9,26.5,22.4,88,92,84,0.380,21.8,23.4,18.9,1.425,1.2,252,16,3.0,-0.00015,-0.00020,46.8,48.3,45,0,0,0.0,8.27,0.00,0.00
15min,AgWx,bigpiney,439,11SEP2020:06:00:00,25.7,12.36,20.2,22.1,23.8,25.8,21.6,87,90,84,0.363,20.5,23.1,18.2,4.012,3.2,202,10,4.7,-0.00008,-0.00009,46.8,48.3,45,2,0,0.0,8.27,0.00,0.00
15min,AgWx,bigpiney,439,11SEP2020:06:15:00,25.2,12.38,22.1,21.1,20.4,21.9,19.5,89,92,87,0.349,17.6,19.1,16.6,5.283,4.7,210,11,6.1,-0.00014,-0.00011,46.7,48.3,45,13,0,0.0,8.27,0.00,0.00
15min,AgWx,bigpiney,439,11SEP2020:06:30:00,25.0,12.37,22.6,22.3,22.4,23.3,21.0,90,91,88,0.359,19.8,21.1,18.4,3.354,4.3,222,6.0,6.2,-0.00001,0.00002,46.7,48.3,45,19,0,0.0,8.27,0.00,0.00
15min,AgWx,bigpiney,439,11SEP2020:06:45:00,25.1,12.46,25.3,24.9,24.1,25.2,22.2,89,90,88,0.405,21.4,22.5,19.2,4.494,4.1,221,6.4,4.6,0.00002,0.00006,46.6,48.3,45,53,0,0.0,8.27,0.00,0.00
15min,AgWx,bigpiney,439,11SEP2020:07:00:00,25.9,12.71,29.4,28.7,26.9,28.7,24.9,89,90,89,0.476,24.2,25.9,21.9,2.039,3.3,218,6.9,5.0,0.00017,0.00022,46.5,48.3,45,133,0,0.0,8.27,0.00,0.00
15min,AgWx,bigpiney,439,11SEP2020:07:15:00,27.4,13.13,31.9,31.7,30.5,31.7,28.8,89,89,87,0.530,27.5,28.7,26.0,1.513,1.0,201,27,2.3,0.00035,0.00038,46.5,48.2,45,176,0,0.0,8.27,0.00,0.00
15min,AgWx,bigpiney,439,11SEP2020:07:30:00,29.3,13.56,35.0,34.5,33.0,34.5,31.6,85,88,81,0.547,29.0,29.9,28.3,0.197,1.3,180,12,2.9,0.00057,0.00063,46.4,48.2,45,220,0,0.0,8.27,0.00,0.00
15min,AgWx,bigpiney,439,11SEP2020:07:45:00,31.8,13.83,37.1,37.5,36.1,37.6,34.5,78,82,75,0.569,30.0,30.9,29.3,0.57,0.5,167,35,1.7,0.00083,0.00090,46.3,48.2,45,267,0,0.0,8.27,0.00,0.00
15min,AgWx,bigpiney,439,11SEP2020:08:00:00,34.9,14.8,39.8,40.2,38.6,40.3,37.1,72,74,68,0.585,30.3,31.4,29.5,0,0.1,265,30,1.0,0.00112,0.00119,46.3,48.2,45,317,0,0.0,8.27,0.00,0.00
15min,AgWx,bigpiney,439,11SEP2020:08:15:00,38.2,14.78,41.0,41.2,40.7,41.9,40.0,68,70,66,0.579,31.1,32.2,30.5,0.482,0.4,136,66,1.7,0.00142,0.00154,46.2,48.2,45,367,0,0.0,8.27,0.00,0.00
15min,AgWx,bigpiney,439,11SEP2020:08:30:00,41.6,14.57,42.6,42.9,42.0,43.3,41.1,66,68,64,0.613,31.4,32.8,30.5,1.6,1.0,81,28,2.9,0.00172,0.00188,46.2,48.2,45,418,0,0.0,8.27,0.00,0.00
15min,AgWx,bigpiney,439,11SEP2020:08:45:00,44.7,14.52,43.8,43.6,43.1,44.2,42.4,63,66,61,0.590,31.5,32.1,30.9,2.192,1.4,96,33,3.7,0.00200,0.00221,46.1,48.1,45,465,0,0.0,8.27,0.00,0.00